Weather History for KHLC - January, 2014

Change the Weather History Date:

Tuesday, January 14, 2014

  Actual Average Record
Temperature  
Mean Temperature 38 °F 29 °F  
Max Temperature 50 °F 42 °F 74 °F (1996)
Min Temperature 26 °F 17 °F -10 °F (1972)
Degree Days  
Heating Degree Days 28    
Moisture  
Dew Point 19 °F    
Average Humidity 49    
Maximum Humidity 78    
Minimum Humidity 26    
Precipitation  
Precipitation T in 0.01 in 0.01 in (2007)
Month to date precipitation 0.03 0.12  
Year to date precipitation 0.03 0.12  
Sea Level Pressure  
Sea Level Pressure 30.21 in    
Wind  
Wind Speed 16 mph (NW)    
Max Wind Speed 30 mph    
Max Gust Speed 39 mph    
Visibility 10 miles    
Events      
T = Trace of Precipitation, MM = Missing Value Source: NWS Daily Summary

Daily Weather History Graph

Daily Weather History Graph

Search for Another Location

Airport or City:

Trip Planner

Search our weather history database for the weather conditions in past years. The results will help you decide how hot, cold, wet, or windy it might be!

Date:

Astronomy

Jan. 14, 2014 Rise Set
Actual Time 7:57 AM CST 5:39 PM CST
Civil Twilight 7:28 AM CST 6:08 PM CST
Nautical Twilight 6:55 AM CST 6:41 PM CST
Astronomical Twilight 6:23 AM CST 7:14 PM CST
Moon 4:45 PM CST (1/14) 6:33 AM CST (1/14)
Length of Visible Light 10h 40m
Length of Day
9h 41m
Waxing Gibbous, 98% of the Moon is Illuminated
Jan 14
Waxing Gibbous
Jan 15
Full
Jan 23
Last Quarter
Jan 30
New
Feb 6
First Quarter

Hourly Weather History & Observations

Time (CST) Temp. Windchill Dew Point Humidity Pressure Visibility Wind Dir Wind Speed Gust Speed Precip Events Conditions
12:53 AM 48.0 °F - 21.0 °F 34% 29.86 in 10.0 mi WNW 12.7 mph - N/A   Overcast
1:53 AM 48.0 °F - 21.0 °F 34% 29.87 in 10.0 mi West 16.1 mph 26.5 mph N/A   Overcast
2:53 AM 48.9 °F - 25.0 °F 39% 29.89 in 10.0 mi WNW 19.6 mph 26.5 mph N/A   Scattered Clouds
3:53 AM 48.0 °F - 28.9 °F 48% 29.93 in 10.0 mi NW 20.7 mph 29.9 mph N/A   Partly Cloudy
4:53 AM 43.0 °F 34.5 °F 28.0 °F 56% 30.01 in 10.0 mi North 19.6 mph 39.1 mph N/A   Overcast
5:53 AM 37.9 °F 29.6 °F 23.0 °F 55% 30.06 in 10.0 mi North 13.8 mph - N/A   Clear
6:53 AM 37.0 °F 28.5 °F 21.0 °F 52% 30.13 in 10.0 mi NNW 13.8 mph - N/A   Clear
7:53 AM 37.0 °F 27.0 °F 18.0 °F 46% 30.19 in 10.0 mi NNW 18.4 mph - N/A   Clear
8:53 AM 36.0 °F 28.0 °F 18.0 °F 48% 30.24 in 10.0 mi NNW 11.5 mph - N/A   Clear
9:53 AM 37.9 °F 28.5 °F 18.0 °F 45% 30.27 in 10.0 mi NNW 17.3 mph 26.5 mph N/A   Clear
10:53 AM 41.0 °F 29.8 °F 10.9 °F 29% 30.30 in 10.0 mi NNW 29.9 mph 39.1 mph N/A   Clear
11:53 AM 43.0 °F 33.5 °F 10.9 °F 27% 30.28 in 10.0 mi North 24.2 mph 35.7 mph N/A   Clear
12:53 PM 44.1 °F 34.2 °F 10.9 °F 26% 30.26 in 10.0 mi NNW 28.8 mph 36.8 mph N/A   Clear
1:53 PM 44.1 °F 35.2 °F 15.1 °F 31% 30.27 in 10.0 mi NNW 23.0 mph 31.1 mph N/A   Mostly Cloudy
2:53 PM 44.1 °F 35.2 °F 14.0 °F 30% 30.27 in 10.0 mi NW 23.0 mph 34.5 mph N/A   Partly Cloudy
3:53 PM 42.1 °F 33.3 °F 16.0 °F 35% 30.29 in 10.0 mi NW 19.6 mph 28.8 mph N/A   Clear
4:53 PM 36.0 °F 25.6 °F 24.1 °F 62% 30.33 in 10.0 mi NW 18.4 mph 34.5 mph 0.00 in   Overcast
5:53 PM 33.1 °F 23.9 °F 21.0 °F 61% 30.36 in 10.0 mi WNW 12.7 mph - 0.00 in   Clear
6:53 PM 30.9 °F 22.8 °F 18.0 °F 59% 30.36 in 10.0 mi WNW 9.2 mph - N/A   Clear
7:53 PM 28.0 °F 18.1 °F 19.0 °F 69% 30.38 in 10.0 mi NW 11.5 mph - N/A   Clear
8:53 PM 26.1 °F 17.6 °F 18.0 °F 71% 30.38 in 10.0 mi NNW 8.1 mph - N/A   Partly Cloudy
9:53 PM 27.0 °F 19.5 °F 19.0 °F 72% 30.38 in 10.0 mi West 6.9 mph - N/A   Scattered Clouds
10:53 PM 26.1 °F 19.4 °F 19.9 °F 78% 30.37 in 10.0 mi West 5.8 mph - N/A   Clear
11:53 PM 28.9 °F 22.8 °F 21.0 °F 72% 30.37 in 10.0 mi NW 5.8 mph - N/A   Clear